Location: Arrecife
(10.5858°N, 67.0742°W)
Time: 20:15:44
(UTC+00:00)

ARGOS - Pass Details

Date: 08 December 2021
Orbit: 819 x 835 km, 98.4° (Epoch: 17 January)

Event Time Altitude Azimuth Distance (km) Brightness Sun altitude
Rises 22:37:31 0° 150° (SSE) 3,373 6.3 -8.0°
Reaches altitude 10° 22:40:02 10° 142° (SE) 2,439 5.4 -8.5°
Maximum altitude 22:44:59 37° 76° (ENE) 1,268 3.6 -9.7°
Drops below altitude 10° 22:49:54 10° 10° (N) 2,432 5.3 -10.8°
Sets 22:52:24 0° 2° (N) 3,363 6.1 -11.4°
